User: anonymous   Login
Location: B?jaj?g
(11.7167°N, 92.6667°E)
Time: 15:12:24
(UTC+00:00)
Language:

NOAA 18 - Orbit

View from above orbital plane
View from above orbital plane
View from above satellite
View from above satellite

Ground track
Ground track

The orbit data is extracted from the following two-line orbital elements,

1 28654U 05018A   21268.45710222  .00000107  00000-0  82120-4 0  9996
2 28654  98.9848 333.6759 0014143   4.3335 355.7956 14.12640697842655
Epoch (UTC): 25 September 2021 10:58:13
Eccentricity: 0.0014143
inclination: 98.9848°
perigee height: 840 km
apogee height: 860 km
right ascension of ascending node: 333.6759°
argument of perigee: 4.3335°
revolutions per day: 14.12640697
mean anomaly at epoch: 355.7956°
orbit number at epoch: 84265

The dashed part of the orbit path shows where the satellite is in the earth's shadow,  

DLR